User: anonymous   Login
Location: Caracas
(10.5033°N, 66.8422°W)
Time: 19:29:31
(UTC-04:00)
Language:

M-CUBED/EXP-1 PRIME - Orbit

View from above orbital plane
View from above orbital plane
View from above satellite
View from above satellite

Ground track
Ground track

The orbit data is extracted from the following two-line orbital elements,

1 37855U 11061F   18293.88990488  .00001135  00000-0  65144-4 0  9998
2 37855 101.7193  60.7403 0175412  70.1292 291.8729 15.04820678380553
Epoch (UTC): 20 October 2018 21:21:27
Eccentricity: 0.0175412
inclination: 101.7193°
perigee height: 430 km
apogee height: 673 km
right ascension of ascending node: 60.7403°
argument of perigee: 70.1292°
revolutions per day: 15.04820678
mean anomaly at epoch: 291.8729°
orbit number at epoch: 38055

The dashed part of the orbit path shows where the satellite is in the earth's shadow,  

DLR